Location: Endfield
(51.6667°N, 0.0667°W)
Time: 03:04:02
(UTC+00:00)

Sich 1 - Pass Details

Date: 19 May 2024
Orbit: 584 x 611 km, 82.5° (Epoch: 21 June)

Event Time Altitude Azimuth Distance (km) Brightness Sun altitude
Rises 22:44:06 0° 344° (NNW) 2,879 8.3 -16.6°
Reaches altitude 10° 22:46:23 10° 338° (NNW) 1,973 7.0 -16.7°
Maximum altitude 22:50:32 45° 267° (W) 843 3.8 -16.8°
Enters shadow 22:52:48 24° 207° (SSW) 1,286 4.3 -16.9°
